GFSNW_850_thetae_273.txt.gz
Theta_e
311 311 311 311 312 312 312 316 322 322 329 324 317 320 322 324 324 325 322 324 324 324 323 325 325 325 326 327 326 323 319 316 320 323 320 320 318 318 315 316 317 314 315 319
311 311 311 311 311 312 314 319 321 321 324 318 315 315 321 321 321 321 320 322 323 322 324 324 323 326 327 330 326 327 322 318 320 321 321 320 321 317 313 311 311 315 318 320
311 311 312 312 311 312 315 321 314 320 320 318 315 315 317 316 318 320 318 320 320 320 323 323 325 326 328 329 330 328 324 315 319 321 321 321 323 320 317 317 315 316 316 319
312 312 313 314 313 311 315 318 314 316 315 314 315 316 315 317 318 318 318 317 318 321 324 326 329 328 326 327 327 326 322 324 320 319 318 319 321 322 317 317 317 318 320 317
312 312 313 314 314 313 315 318 316 316 315 316 314 312 316 319 319 318 318 319 319 326 328 328 329 327 326 327 325 325 321 326 324 327 321 322 321 322 321 320 319 318 318 319
311 312 313 313 314 314 313 313 315 316 312 312 312 314 317 318 318 320 319 319 318 322 325 324 325 326 325 324 326 326 324 326 326 327 323 323 321 320 321 322 322 323 322 321
311 311 313 313 314 314 314 314 316 316 312 312 314 316 316 318 317 318 319 321 321 322 323 322 322 323 323 323 323 325 325 324 323 327 325 331 321 322 321 328 330 329 328 330
312 311 312 313 314 314 314 314 314 314 311 314 314 314 315 317 317 318 319 320 320 323 320 316 318 318 321 324 322 322 321 321 325 330 327 326 328 329 328 326 331 329 330 330
311 311 310 313 313 314 314 314 313 313 313 311 314 314 314 314 314 315 318 320 321 323 316 318 320 321 322 324 323 316 319 321 322 325 330 331 326 330 329 326 329 328 329 328
311 312 310 312 313 313 314 313 313 313 312 313 314 313 313 315 315 313 316 318 320 321 317 319 320 321 321 323 323 322 318 317 324 326 330 331 327 327 329 330 326 328 328 329
311 312 310 310 311 313 313 313 313 312 312 312 313 313 314 314 314 313 316 315 317 316 318 321 320 321 320 319 319 321 320 320 320 322 327 327 327 327 331 328 328 328 328 327
311 311 310 311 310 311 312 313 313 313 311 312 312 313 313 313 313 313 314 314 315 317 315 317 317 320 319 319 323 319 323 321 324 323 323 324 327 325 325 327 328 328 328 327
309 311 311 311 311 309 311 312 313 313 311 311 313 315 315 314 314 314 314 315 316 317 317 318 315 320 317 320 319 321 319 322 320 320 321 323 322 322 324 326 326 327 328 327
307 310 311 310 310 309 311 311 312 313 311 311 313 313 314 314 314 315 316 317 317 316 316 319 317 319 317 317 317 318 318 318 318 317 318 320 322 323 323 322 323 324 327 327
306 310 310 310 310 309 311 312 312 313 312 312 313 313 316 316 317 318 317 315 315 315 318 317 315 316 316 314 313 314 317 316 316 318 318 319 321 320 321 322 323 324 324 324
305 310 310 310 309 310 311 314 314 314 314 313 312 312 315 318 319 319 317 317 317 315 318 317 318 319 318 319 317 316 317 317 318 317 319 320 319 318 318 321 323 323 324 325
309 310 310 310 309 310 311 312 315 313 314 312 311 310 313 315 317 319 318 317 317 317 318 317 316 317 318 318 318 317 317 317 317 317 317 316 318 318 318 320 322 323 323 323
311 311 309 309 310 312 313 315 313 313 314 312 312 310 312 316 316 316 317 318 318 318 317 317 316 316 316 319 317 318 320 320 321 321 321 320 320 320 320 321 322 323 323 322
310 309 310 313 314 314 316 316 315 314 314 313 313 311 310 315 316 316 315 316 312 316 317 317 317 316 319 317 316 316 316 317 318 318 319 321 321 322 322 322 323 324 324 324
310 312 315 315 317 318 315 314 313 313 314 313 311 312 310 314 315 314 314 314 311 315 315 316 316 314 315 316 316 317 317 316 317 317 318 319 320 321 323 322 322 321 322 323
316 315 316 315 314 313 314 316 314 313 313 312 311 312 309 313 313 313 314 312 314 316 315 317 318 318 316 316 316 317 317 318 318 318 318 320 321 321 322 322 322 322 323 322
314 313 312 312 313 315 316 316 315 314 313 314 313 314 313 314 316 315 314 315 314 318 315 317 318 315 316 316 318 318 318 319 320 321 321 320 321 321 322 322 322 322 323 322
311 312 314 315 315 315 317 316 315 313 314 316 316 315 317 316 316 313 313 315 316 314 316 318 317 315 316 317 318 318 318 318 318 318 320 320 320 321 321 320 321 322 323 323
312 314 312 315 316 313 312 313 314 316 316 316 316 317 316 315 313 313 316 314 314 317 314 315 313 315 315 317 318 319 320 318 318 317 318 319 320 320 320 319 319 320 322 323
313 315 312 313 315 316 317 317 317 317 316 314 312 311 315 310 312 310 314 316 314 313 313 312 315 316 314 317 319 318 319 318 318 318 318 319 321 321 320 319 319 319 322 324
312 314 314 317 316 316 317 317 315 315 316 313 314 312 311 311 310 314 315 313 313 313 311 314 316 314 314 317 318 317 317 318 317 319 318 318 318 321 322 321 322 323 324 324
315 316 316 316 315 316 318 318 317 316 315 313 311 314 313 308 311 313 311 313 312 313 314 315 316 314 313 315 317 319 318 317 317 318 317 317 318 319 322 323 322 320 321 323

GFSNW_850_thetae_276.txt.gz
Theta_e
311 311 311 311 311 311 315 324 320 321 327 323 315 319 320 322 323 322 318 322 323 323 322 323 323 324 325 328 322 321 317 314 319 320 320 320 318 317 314 317 317 312 313 317
311 312 313 313 312 311 317 321 320 321 328 318 314 314 319 318 316 318 317 320 319 320 323 326 323 324 327 329 326 327 319 317 320 324 321 319 321 315 312 310 310 314 318 320
311 312 313 314 313 311 314 319 315 319 319 316 313 315 316 316 318 318 316 318 319 320 321 322 325 328 328 328 327 326 323 314 321 324 323 319 321 320 314 315 314 316 314 319
311 311 313 314 314 313 314 317 313 314 313 314 314 314 314 318 319 318 318 317 317 322 323 326 329 327 325 326 327 325 321 326 320 318 320 319 318 319 318 315 316 319 322 315
311 311 313 313 314 314 312 315 315 314 313 314 311 311 315 318 318 318 318 319 319 320 325 327 328 326 325 326 324 325 320 325 324 328 325 324 324 320 319 316 317 315 317 317
311 311 313 313 314 315 314 315 315 315 311 310 308 314 316 317 317 317 318 319 317 319 322 321 322 322 323 322 325 325 324 324 325 328 323 324 328 322 321 320 328 326 319 323
311 311 312 313 314 315 314 314 315 314 310 310 313 315 315 316 316 317 318 319 320 320 322 323 320 320 321 320 320 322 322 322 321 326 326 332 326 324 325 329 329 328 329 330
311 311 310 313 313 314 314 314 314 313 309 312 313 314 313 315 316 316 317 319 319 320 321 314 316 315 317 320 320 319 318 320 324 327 326 326 328 329 330 329 328 328 329 329
311 311 310 312 313 313 313 313 313 313 312 310 314 313 313 313 312 313 317 319 319 321 314 316 318 319 318 321 322 316 316 316 319 321 328 330 326 329 327 328 327 327 328 327
311 311 311 310 311 312 313 313 313 313 312 313 313 312 312 313 313 311 314 316 317 318 314 318 318 319 320 322 322 321 317 316 321 321 323 323 326 326 327 332 330 327 328 327
309 311 311 310 310 310 312 312 313 313 313 313 312 313 313 314 313 312 314 314 315 314 316 318 318 319 319 320 318 318 318 319 318 319 324 326 325 323 327 326 327 328 328 328
305 309 311 310 311 310 310 311 312 312 312 313 312 312 313 312 313 312 313 313 314 315 313 315 314 318 316 317 322 318 322 318 322 319 320 320 325 324 322 322 326 326 327 327
305 306 310 311 310 310 308 311 311 312 311 312 313 315 315 314 314 313 313 314 315 316 316 315 313 318 315 318 317 320 318 320 319 319 319 320 321 318 320 322 324 324 324 325
305 305 310 310 310 310 309 311 311 312 312 311 312 313 312 314 314 314 315 315 315 315 315 316 314 318 316 314 315 316 317 317 316 316 315 317 317 320 320 319 320 321 322 324
304 305 309 310 310 309 310 311 312 312 312 311 312 313 314 313 315 317 316 316 314 314 315 316 317 315 315 314 313 313 316 316 315 317 316 316 317 317 318 319 318 318 319 322
304 305 309 310 310 309 310 312 314 313 314 313 311 312 313 315 317 317 319 317 314 313 315 315 317 318 318 319 318 315 317 317 317 316 317 316 317 317 318 318 318 317 318 322
306 309 310 310 309 309 310 311 313 312 314 313 311 309 312 313 316 317 318 317 315 315 316 316 316 317 317 318 319 316 317 316 317 319 318 318 320 320 320 319 319 319 319 320
310 311 310 308 309 312 313 314 313 312 314 313 312 308 311 315 316 315 316 317 317 317 317 316 315 316 315 318 314 316 316 316 317 319 318 318 318 319 320 320 321 320 321 323
310 309 309 312 314 314 316 314 314 313 314 314 313 312 308 313 315 315 314 315 312 314 313 315 317 317 318 316 316 316 316 316 317 317 316 316 317 318 319 320 321 321 322 323
311 311 314 314 316 317 313 314 313 312 313 313 312 311 308 312 314 313 313 313 311 311 312 315 316 316 315 316 316 315 317 318 318 318 317 318 317 317 318 318 320 322 322 321
315 314 315 315 314 313 313 315 314 312 313 311 310 310 308 312 311 310 314 311 313 316 315 315 317 318 316 316 315 317 318 318 318 319 319 319 319 319 319 319 320 321 321 322
313 312 312 312 311 313 315 316 315 313 313 313 312 313 312 313 314 315 314 314 314 315 314 315 318 314 315 315 315 317 317 318 319 319 318 318 319 320 320 320 320 321 321 321
310 312 312 313 314 314 317 314 313 312 313 314 314 313 315 313 315 314 313 315 315 314 315 317 317 315 315 315 314 317 318 319 318 318 318 318 318 319 320 320 321 321 321 321
311 313 309 314 313 312 311 311 311 315 315 315 315 315 314 313 312 311 314 313 314 316 314 314 313 313 316 314 314 317 317 318 318 317 317 318 318 319 319 320 321 319 319 320
311 313 312 311 313 314 315 315 315 316 316 316 311 310 313 309 311 309 312 316 313 312 313 308 312 315 315 313 315 317 317 318 317 317 317 318 318 320 320 320 320 320 320 319
310 312 312 315 314 315 316 317 317 316 315 313 313 311 311 311 309 313 313 312 310 311 309 312 314 315 313 313 314 316 317 319 318 317 318 318 317 319 321 320 320 321 323 324
313 314 314 313 313 314 314 315 317 317 314 312 312 314 314 308 310 311 307 309 309 312 313 314 314 314 313 313 314 315 316 319 318 318 318 317 317 317 321 322 322 321 322 322

GFSNW_850_thetae_279.txt.gz
Theta_e
310 311 313 313 311 311 317 327 326 324 327 326 319 326 323 321 320 319 321 324 324 326 325 326 326 328 330 328 323 325 323 325 328 327 324 323 325 328 327 328 330 324 325 328
310 311 313 313 312 311 321 321 320 323 327 327 323 319 320 318 319 319 320 322 322 322 326 329 326 328 328 328 331 330 323 326 331 331 327 322 326 323 324 323 323 329 328 329
310 310 312 313 313 312 318 319 323 319 319 315 319 320 319 319 319 319 318 320 322 325 326 328 329 332 329 327 330 323 325 327 332 332 332 327 330 328 322 323 327 329 328 329
310 310 312 313 313 312 313 316 316 314 319 318 316 317 317 320 321 320 320 322 321 324 327 328 331 330 329 328 327 328 329 334 325 327 326 328 330 329 329 324 327 328 329 329
311 310 312 313 314 314 312 314 315 313 313 313 314 315 319 320 320 320 320 322 322 321 328 328 330 329 328 329 328 330 327 334 331 333 332 330 329 330 329 330 328 326 324 326
310 310 312 313 314 314 314 315 314 311 312 314 313 318 318 319 318 318 319 320 322 321 324 321 322 322 323 324 326 327 328 332 333 333 331 331 333 332 330 329 330 329 327 332
310 311 311 313 313 314 313 314 314 313 316 316 317 316 316 317 317 318 318 318 322 320 320 321 318 319 320 322 325 324 328 331 330 328 329 330 329 330 328 328 331 332 333 332
310 311 310 312 313 313 313 313 313 313 316 315 316 315 316 316 316 317 318 318 319 319 320 321 322 322 322 323 324 325 323 328 325 326 324 324 326 331 333 333 332 331 332 332
309 310 311 310 311 312 313 312 313 313 314 315 314 315 314 317 317 318 318 318 317 319 322 321 322 319 321 321 325 322 323 326 328 328 329 326 330 330 328 329 333 330 331 331
306 309 311 310 310 310 311 312 312 313 313 313 313 315 315 314 315 316 315 316 318 317 323 322 322 320 322 321 322 326 325 325 327 326 326 325 327 326 328 333 332 328 329 330
305 307 310 311 310 310 309 311 312 312 312 312 313 313 313 314 314 316 315 317 317 321 324 326 324 325 324 325 323 324 323 323 323 325 324 322 325 325 327 325 324 325 327 328
305 305 308 310 310 310 309 311 311 312 312 312 312 312 312 313 313 313 313 315 316 317 321 321 321 324 323 324 325 323 326 323 326 326 324 326 326 325 320 322 324 325 327 326
305 305 306 310 310 310 309 311 311 312 312 312 313 314 314 314 314 313 314 314 314 316 315 319 321 323 321 322 323 323 323 322 326 326 324 323 319 318 318 321 320 322 324 324
305 304 306 309 310 310 309 310 311 312 311 312 313 312 312 313 313 313 313 314 314 314 314 317 320 321 318 319 319 319 318 320 321 322 320 318 317 317 318 318 318 319 321 321
304 304 305 309 310 310 309 312 313 312 312 314 313 313 313 313 314 315 315 314 313 313 316 319 320 319 319 319 319 320 318 319 321 321 318 318 318 318 318 317 319 320 320 320
304 305 307 310 310 310 310 313 313 312 313 311 313 312 312 313 315 316 316 316 314 313 315 317 317 318 319 321 320 318 317 318 317 318 317 317 317 318 318 318 319 320 320 320
305 308 309 310 310 309 310 311 312 312 313 312 313 312 312 312 315 316 317 316 313 314 316 317 317 317 317 321 321 318 318 318 317 318 319 320 320 320 320 320 320 320 320 320
310 311 310 308 310 313 314 313 313 312 313 313 313 313 313 314 316 317 315 317 316 316 318 317 318 318 318 321 318 317 316 316 316 316 317 318 318 317 318 318 319 320 321 320
311 309 309 313 314 314 316 313 313 313 313 314 313 313 316 313 314 315 315 314 318 314 317 318 318 318 321 319 317 316 316 316 317 318 318 318 319 319 318 318 318 319 320 322
311 311 314 315 316 316 313 313 313 313 312 312 311 311 314 312 314 317 316 315 317 317 317 316 319 318 316 317 316 315 316 317 318 318 318 318 319 319 319 320 320 320 320 320
314 314 315 314 313 313 313 315 313 313 313 311 311 311 314 311 316 318 316 318 315 316 317 318 319 321 318 316 316 316 315 318 317 318 318 319 318 318 318 318 319 320 321 321
312 312 312 312 311 312 315 317 315 314 314 314 314 314 311 312 312 317 317 317 316 316 316 318 318 319 313 315 315 314 316 317 317 318 318 318 317 317 318 317 318 319 320 321
310 311 311 312 313 314 317 315 317 317 315 315 314 317 314 313 313 316 316 317 317 315 317 317 318 316 312 315 315 315 317 316 316 317 317 316 317 318 318 318 317 318 320 321
310 312 309 314 315 315 316 316 316 316 315 315 315 317 315 313 315 314 317 317 316 317 316 316 318 314 314 315 313 314 315 315 315 317 317 318 318 316 319 320 320 319 320 320
310 312 312 315 313 313 314 314 315 315 315 315 314 312 314 313 316 313 314 317 318 314 315 316 315 313 314 314 313 314 315 314 317 318 318 317 317 317 320 320 320 320 320 320
310 310 312 314 315 316 316 316 316 316 315 313 312 315 316 317 316 315 317 315 315 317 316 314 313 313 314 313 313 314 316 316 318 317 317 316 315 318 321 322 322 322 322 322
311 311 312 312 313 314 314 313 314 316 314 317 316 318 316 312 316 316 315 317 316 314 314 313 314 313 313 313 313 315 315 315 316 318 317 316 316 319 321 321 320 320 318 321

GFSNW_850_thetae_285.txt.gz
Theta_e
309 309 310 312 312 313 323 328 332 327 326 329 330 333 334 329 332 329 331 333 334 335 334 334 332 332 333 333 332 330 331 332 333 334 333 333 333 334 333 334 337 335 335 336
309 309 310 312 313 312 321 330 329 327 327 333 332 332 332 330 329 331 331 332 332 333 335 335 334 333 334 333 332 333 334 332 332 334 334 333 333 332 332 333 334 335 336 336
308 309 310 313 313 313 319 327 329 328 328 329 332 332 331 329 327 328 328 331 330 333 334 335 337 334 335 333 334 331 332 333 334 335 336 337 336 334 333 333 334 334 334 335
308 309 310 312 313 313 320 326 328 328 331 330 329 330 330 329 329 328 328 330 330 332 334 335 335 335 336 334 331 332 333 335 336 335 335 336 336 336 336 336 336 337 336 335
307 308 310 312 313 319 322 325 327 325 327 327 328 323 329 327 328 327 328 328 329 329 331 334 335 337 335 336 336 335 335 338 336 337 337 337 337 335 336 335 335 336 336 336
307 308 309 312 313 317 320 320 321 324 320 325 327 328 328 327 326 325 325 327 327 327 329 329 329 330 331 332 334 335 336 336 337 338 336 336 337 335 335 335 336 335 336 336
306 307 309 310 313 315 320 319 321 322 322 321 323 322 322 322 322 324 322 322 323 326 324 323 322 322 324 326 327 328 331 334 334 335 334 336 333 331 331 332 332 333 334 334
305 306 309 310 311 313 319 318 321 323 325 322 321 320 321 321 321 319 320 320 322 322 320 321 322 323 324 324 324 325 325 327 329 330 329 329 327 327 328 328 328 333 334 334
305 305 308 310 310 310 318 318 319 321 324 323 321 321 321 324 324 325 322 322 322 322 322 324 325 326 325 325 326 325 325 326 326 327 327 327 327 332 330 331 331 335 335 336
305 305 306 309 310 310 313 317 314 321 322 320 321 323 324 321 322 324 324 323 323 322 326 325 325 325 324 324 325 326 329 327 326 327 328 327 327 330 329 330 333 331 331 333
304 305 305 308 310 310 312 318 311 318 320 320 318 318 321 321 321 324 325 323 324 324 325 326 326 326 327 327 326 327 327 329 329 329 329 328 330 329 330 331 328 329 329 330
304 305 305 307 310 310 313 317 316 312 320 322 318 318 318 319 320 322 320 325 325 326 328 327 327 327 326 327 328 327 327 327 329 331 331 330 329 329 328 326 325 325 327 327
304 305 305 306 310 310 309 315 317 318 319 319 318 319 317 318 318 318 323 321 322 323 324 324 324 326 325 325 325 326 326 325 327 327 326 326 325 326 325 325 324 323 323 323
304 305 305 306 310 310 309 315 316 317 318 321 320 317 317 318 317 318 319 320 320 320 321 322 324 324 323 324 324 325 324 323 325 325 324 323 323 323 323 322 321 322 322 322
306 305 305 307 310 310 311 316 316 314 319 321 320 318 317 318 318 318 319 319 320 321 322 323 324 322 323 322 323 323 322 323 324 324 322 322 322 321 321 321 321 321 321 321
307 305 305 309 310 310 314 318 317 313 316 319 321 320 318 318 320 320 320 321 321 321 321 321 320 320 321 322 323 321 321 321 321 321 320 320 320 320 320 320 320 320 321 322
306 307 309 310 310 309 315 316 315 313 315 318 320 319 317 318 319 320 320 320 320 320 319 320 320 319 320 322 323 320 319 320 321 320 320 319 319 319 319 319 320 320 320 320
309 311 311 309 311 313 316 314 313 313 316 317 322 321 319 318 321 321 320 318 321 319 319 319 319 319 319 320 320 320 320 320 319 319 318 319 319 319 319 320 321 321 321 321
311 311 310 314 315 317 317 314 313 313 317 319 320 321 322 317 319 318 319 320 321 321 320 319 318 320 321 321 320 320 321 320 319 317 317 317 318 319 321 321 320 320 322 322
310 311 316 317 314 314 314 313 316 316 317 317 320 319 321 318 319 319 320 320 320 321 321 318 320 320 320 320 319 320 319 318 317 317 317 318 318 319 319 319 320 321 321 321
314 316 316 314 313 313 316 317 317 317 318 318 319 319 321 318 320 320 320 320 319 319 319 319 319 321 319 316 316 317 317 317 316 316 318 318 317 318 318 317 317 318 319 320
312 312 312 313 315 316 316 319 318 319 321 319 320 320 319 320 320 320 320 321 319 319 318 318 320 321 318 317 316 316 316 315 315 316 317 316 317 316 317 316 317 318 318 318
311 313 315 315 315 316 317 319 320 321 320 320 320 320 320 321 320 320 321 321 320 318 318 319 319 319 318 317 317 317 315 314 316 317 317 315 315 314 315 315 316 319 320 320
313 315 315 316 317 317 319 320 321 320 320 320 320 322 322 320 321 320 321 320 319 319 320 320 318 320 319 319 318 317 315 315 317 317 317 316 313 315 317 319 321 323 322 321
314 315 318 316 315 317 319 319 319 319 319 320 321 321 322 321 321 320 320 320 320 320 321 318 318 320 320 319 318 316 315 317 317 317 314 314 314 317 317 318 321 321 322 323
314 315 316 316 318 319 319 319 319 319 319 320 320 321 321 322 321 320 320 319 320 318 318 317 316 320 319 318 316 315 317 317 317 317 314 315 317 316 317 316 318 319 318 319
315 315 314 314 316 317 318 318 319 320 319 321 321 321 322 320 321 320 319 319 319 317 316 315 318 319 319 317 315 316 316 317 317 316 315 314 316 317 317 317 317 318 317 317

GFSNW_850_thetae_288.txt.gz
Theta_e
308 308 309 311 311 312 323 329 333 330 325 327 329 333 334 333 335 332 332 333 335 336 336 335 334 332 334 332 331 332 332 332 333 334 334 334 333 334 332 331 336 334 335 337
307 308 308 311 313 313 315 330 333 330 327 329 330 330 332 333 333 333 332 333 334 334 335 337 336 335 335 334 333 336 335 334 332 333 334 334 333 333 333 333 334 336 337 338
306 307 308 311 313 313 315 329 331 329 327 328 333 336 334 333 329 329 330 332 333 333 335 335 336 337 336 334 334 333 334 334 335 334 335 335 337 335 335 335 334 334 334 335
306 307 308 310 313 317 322 328 331 332 333 330 331 333 332 333 331 329 329 330 331 332 334 334 336 336 336 335 332 334 334 335 334 334 335 335 336 336 337 336 334 334 335 337
306 307 308 310 313 322 324 326 327 327 330 330 331 325 331 331 331 331 330 329 330 330 331 334 337 337 337 338 336 336 336 338 336 336 336 336 337 337 337 336 336 336 336 336
306 306 308 310 313 319 323 322 324 324 326 326 327 328 329 330 329 328 326 329 329 330 330 329 330 331 332 334 336 337 338 338 339 339 337 337 337 336 336 336 336 335 336 337
305 306 307 309 311 318 322 321 322 325 325 323 325 325 326 327 326 326 325 324 325 327 326 325 325 324 325 326 329 329 331 333 334 336 335 337 335 334 333 332 332 334 334 334
305 306 306 308 309 313 321 321 323 325 329 324 324 323 321 321 322 322 321 321 323 323 322 321 321 321 323 324 324 324 325 327 329 331 332 331 330 329 329 329 330 337 337 338
305 305 306 307 309 309 318 321 320 324 326 326 324 323 323 324 325 325 324 323 324 322 323 323 324 325 326 327 327 326 325 328 327 327 327 328 328 329 331 331 332 335 335 337
304 305 306 306 309 310 317 320 315 323 324 322 323 324 326 323 324 325 327 325 324 324 325 325 325 325 326 326 326 327 329 330 328 327 327 326 329 330 330 332 335 332 332 333
304 305 306 306 309 310 315 321 318 319 324 323 320 320 323 323 321 324 327 326 324 324 325 325 327 327 327 328 328 328 329 329 329 330 330 329 331 332 336 333 331 329 330 331
304 304 305 306 308 310 312 319 319 317 321 325 320 319 320 322 323 324 323 324 329 327 330 329 329 329 328 328 328 327 328 328 328 329 331 329 328 330 329 329 328 327 326 327
304 304 305 305 308 310 310 316 319 319 321 321 319 320 319 319 319 320 324 324 324 325 326 325 325 326 326 327 325 326 326 326 328 329 328 327 326 324 325 324 324 324 325 324
304 305 305 305 308 310 310 316 319 319 320 323 323 320 318 319 318 320 321 323 322 321 322 322 324 325 324 325 325 325 324 324 325 325 324 324 324 325 324 324 323 323 323 323
304 307 305 305 309 310 311 317 319 318 321 324 323 320 319 319 319 319 320 320 322 322 323 324 324 323 324 324 323 323 322 323 324 325 324 324 324 323 322 322 322 321 321 322
304 306 305 307 310 310 317 319 319 317 318 321 322 322 321 320 320 321 322 322 322 322 322 322 322 321 321 323 323 322 321 321 321 322 323 322 322 321 320 320 320 321 321 321
306 307 309 310 310 310 316 318 317 313 314 320 322 320 320 320 321 321 321 321 321 321 321 320 320 321 320 322 323 321 320 321 322 322 321 321 320 320 320 320 320 320 320 322
308 310 311 310 311 314 317 316 313 313 318 319 324 322 320 319 320 321 321 320 320 321 321 320 321 320 320 322 321 320 322 322 321 321 320 319 318 317 319 319 320 320 321 321
311 311 311 314 315 318 318 315 313 313 318 321 322 324 324 319 322 321 321 320 320 322 322 321 320 321 320 321 321 322 321 322 320 319 318 318 318 320 319 319 318 319 320 320
310 311 317 318 317 314 314 317 317 317 318 318 320 322 322 318 320 321 321 321 320 322 321 321 321 321 321 321 320 319 318 318 318 318 317 318 318 317 317 317 318 319 319 319
315 316 317 317 314 316 318 318 319 318 319 318 320 321 322 319 320 322 321 321 321 321 321 320 320 320 321 319 318 317 316 317 317 316 316 318 318 318 318 317 316 317 318 319
312 312 313 315 316 317 318 319 319 320 322 320 320 320 320 322 320 319 321 322 321 322 320 320 320 320 321 319 317 316 317 317 316 314 316 318 318 317 316 314 316 317 318 318
313 315 316 317 316 316 317 319 322 321 320 320 321 323 319 321 320 320 322 322 322 320 320 320 320 321 320 320 320 319 318 318 315 315 317 318 316 314 314 313 317 318 320 321
315 316 316 317 316 317 318 321 321 321 321 321 321 322 322 322 322 321 322 321 320 321 321 321 321 322 322 322 321 319 318 316 316 318 318 318 315 315 315 315 317 317 319 319
315 315 318 317 315 317 318 319 320 320 321 320 321 322 323 324 323 322 320 321 321 321 324 319 320 322 322 322 321 318 317 316 318 318 318 316 314 315 316 317 318 317 318 318
315 316 316 316 318 319 319 320 320 320 319 320 322 322 323 323 323 322 322 320 321 321 320 317 320 319 322 321 319 317 317 318 318 318 317 316 316 316 316 317 317 316 317 317
315 316 315 316 317 318 319 320 320 319 320 322 321 322 321 321 323 322 321 323 323 319 316 314 319 320 320 318 317 317 318 318 318 318 317 317 316 316 317 316 317 317 316 315

GFSNW_850_thetae_291.txt.gz
Theta_e
306 307 307 309 310 312 313 323 333 328 323 326 329 330 332 332 333 332 332 332 332 333 334 336 336 332 333 332 331 330 331 327 328 330 331 330 329 326 324 324 327 328 331 334
306 306 307 309 312 313 313 322 332 329 325 326 326 328 329 330 332 333 331 332 332 333 334 336 336 336 334 333 334 335 333 332 329 328 327 330 330 329 331 328 326 331 334 335
306 306 307 308 312 316 318 325 334 331 329 328 327 329 334 331 332 331 330 330 330 332 333 333 336 336 335 334 334 333 333 330 332 331 333 332 333 334 332 332 330 330 329 335
305 306 307 308 311 320 323 328 332 326 334 330 329 331 331 332 332 329 329 329 329 329 333 333 334 335 336 334 333 334 331 332 334 332 332 332 333 334 335 336 332 333 331 337
305 306 307 308 311 318 325 323 324 325 326 328 332 330 331 331 332 331 331 330 330 330 330 330 332 332 332 336 335 336 333 334 335 335 334 333 335 334 334 334 335 335 333 334
305 306 306 308 311 318 324 321 322 324 327 326 326 328 330 330 330 328 327 328 327 329 327 326 326 326 327 328 331 332 334 336 337 339 335 334 335 336 333 331 334 332 334 340
304 305 306 307 309 318 321 321 322 326 327 326 326 324 325 325 324 325 326 324 325 324 324 322 322 323 323 322 324 327 329 332 330 331 330 334 332 329 328 328 336 336 337 339
304 305 306 307 309 310 321 321 321 325 328 328 325 324 323 323 322 323 322 324 324 324 322 321 320 320 322 321 321 322 320 325 326 330 330 329 330 330 332 332 335 334 337 339
304 304 306 306 308 309 318 321 315 321 327 325 324 324 324 322 325 323 322 325 324 322 322 322 324 324 327 328 326 321 320 323 323 325 328 328 332 332 332 330 337 332 333 334
304 304 305 306 308 310 319 321 320 319 325 323 322 323 324 323 323 326 327 325 323 324 324 326 324 323 325 325 327 330 326 327 327 326 326 328 329 333 333 332 336 331 330 331
303 304 305 306 307 310 319 321 320 318 322 324 321 320 323 325 325 327 324 327 325 325 327 326 326 327 329 329 331 329 328 329 329 328 333 335 331 332 335 331 326 326 325 326
303 304 305 305 307 309 310 312 317 318 320 324 320 318 319 322 322 322 322 324 328 326 330 331 330 330 328 330 329 328 328 328 332 330 331 329 326 326 325 324 325 324 324 324
304 304 305 305 306 309 310 318 319 318 322 322 322 320 318 319 319 320 322 326 324 327 324 326 324 326 323 325 325 325 327 324 326 325 327 325 324 324 324 324 324 323 323 323
304 304 306 305 306 309 310 313 319 319 322 322 322 321 320 320 319 319 321 322 323 321 321 323 323 324 324 324 324 324 324 323 326 326 326 324 324 323 323 322 321 322 322 322
304 304 306 305 306 309 311 317 319 319 320 322 324 321 319 319 318 319 320 320 321 322 324 324 324 324 323 324 322 322 322 323 322 326 324 324 323 322 321 321 321 321 321 320
304 306 306 306 308 311 318 320 319 318 313 320 325 322 320 320 320 320 321 322 322 322 322 323 322 321 322 323 323 323 322 322 322 322 321 321 321 320 320 319 319 319 319 321
305 307 308 309 310 311 314 319 317 313 314 321 323 323 321 320 321 322 322 322 321 321 321 321 321 320 320 322 322 322 322 322 322 321 321 320 320 319 319 319 319 319 320 320
308 309 311 311 310 313 317 316 313 313 316 319 323 324 321 320 321 321 321 322 322 321 320 321 321 321 321 321 321 322 323 323 321 321 320 319 319 318 319 319 318 317 317 318
311 311 311 313 314 317 318 317 314 312 318 320 322 325 325 319 320 322 322 321 322 322 323 322 322 322 322 323 323 321 318 318 318 319 319 318 318 318 318 318 318 318 317 317
311 313 317 318 317 315 314 317 317 317 319 318 319 322 323 320 320 323 323 321 323 322 322 322 322 321 320 322 320 318 318 317 317 317 317 317 317 319 319 317 316 316 316 315
315 315 316 316 315 316 318 318 319 319 319 319 318 321 323 320 323 323 321 323 323 322 321 322 321 322 322 319 318 318 317 317 316 316 315 316 318 317 315 315 314 314 315 317
312 312 312 315 317 318 318 319 319 320 322 320 321 322 323 322 320 321 322 322 323 323 322 322 321 322 321 319 318 318 319 318 317 317 316 317 317 316 315 315 316 315 316 317
313 314 317 317 317 315 318 318 321 323 320 321 321 323 320 322 320 322 323 323 323 320 323 322 324 324 320 319 320 320 320 318 317 316 316 318 318 317 315 315 315 316 317 316
315 315 312 317 317 318 318 319 321 321 322 321 322 322 323 321 322 322 322 323 322 323 324 322 322 322 322 323 322 321 319 318 317 317 318 318 318 316 315 316 316 317 317 317
314 315 315 317 316 315 316 319 320 319 321 321 322 322 321 322 322 323 322 323 323 323 323 320 317 320 320 319 320 320 319 317 317 317 318 317 316 316 316 317 316 317 316 315
314 315 317 317 317 318 319 320 320 321 321 322 321 322 324 323 323 323 323 323 323 323 321 317 315 316 315 317 320 319 317 317 317 318 316 315 316 316 316 316 317 316 316 315
315 316 316 316 317 318 317 318 321 321 320 324 321 322 323 323 323 323 323 322 321 316 315 316 316 316 319 319 317 316 317 318 318 317 315 316 315 315 316 316 316 315 315 314